SL-14 R/B, 20741

Orbit data source: Space-Track

SL-14 R/B, 20741 is space debris in LEO originally from a launch on Wed, 08 Aug 1990 UTC launched from the Plesetsk Missile And Space Complex (PKMTR). Debris objects in space refer to the collection of defunct objects orbiting the Earth. Examples of debris include non-operational satellites, rocket bodies, and fragments generated from explosions, collisions, or faulty payload assembly.

Loading next visibility...
Identifier
20741, 1990-070G
Orbit
LEO
Country
Flag of CISCIS
Related business
Manufacturer
Yuzhnoe
Mission
Spacecraft
Bus & Motor
S5M, Unknown motor
Mass
1,600 kg wet, 1,600 kg dry
Launch date (UTC)
1990-08-08 (35 years ago)
Launch vehicle
Unknown
Launch site
Plesetsk Missile And Space Complex (PKMTR)
Object type
Payload
Rocket body
Debris
Shape & HBR
Cyl, 1.4 m
Radar Cross Section
7.351 m², Large (>1 m²)

Expand to show TLE details & history
Last TLE update: 1 day ago

TLE from 1 day ago
0 SL-14 R/B
1 20741U 90070G   25257.47615300  .00000016  00000-0  37391-4 0  9991
2 20741  82.5722 244.0535 0035010 315.8810 159.7148 12.55714939608926
Epoch: 2025-09-14T11:25Z
TLE epoch observation values (Epoch: 2025-09-14T11:25:39.619Z)
Latitude
63.36852°
Longitude
-116.04993°
Altitude
1,477.235 km
Speed
7.119 km/s
True Right ascension
03h 16m 14s
True Declination
63° 14' 35"
Sunlit
Object was in daylight at epoch
Visualization orbit readout
Latitude
Unknown
Longitude
Unknown
Altitude
Unknown
Speed
Unknown
Apparent Right ascension
Unknown
Apparent Declination
Unknown
Sunlit
N/A
Visualization observer readout
Local Sidereal Time
03:52:10
Azimuth
Unknown
Elevation
Unknown
Doppler factor
Unknown
Orbital elements
Apogee altitude
1,465.376 km
Perigee altitude
1,410.647 km
Semi-major axis
7,816.149 km
Eccentricity
0.0035
Inclination
82.5722°
RAAN
244.0535°
Arg. of periapsis
315.881°
True anomaly
159.85332°
Mean anomaly
159.7148°
Eccentric anomaly
159.78412°
Mean motion
3.1409 °/min
Orbital period
114.62 mins
BSTAR
0.000037391
Loading maneuver chart data...
Computing Atmospheric mass density...
Loading historical data...
Loading historical data...
Loading historical data...
Loading historical data...
Loading historical data...
Loading historical data...
Loading historical data...

Documentation

Showing up to 5 results
|